TimeMDT,TemperatureF,Dew PointF,Humidity,Sea Level PressureIn,VisibilityMPH,Wind Direction,Wind SpeedMPH,Gust SpeedMPH,PrecipitationIn,Events,Conditions,WindDirDegrees,DateUTC
12:53 AM,37.9,15.1,39,29.69,10.0,SW,4.6,-,N/A,,Overcast,220,2014-04-02 06:53:00
1:39 AM,35.1,21.9,59,29.75,10.0,South,11.5,-,0.00,,Overcast,170,2014-04-02 07:39:00
1:53 AM,36.0,21.0,55,29.71,10.0,WNW,8.1,-,0.00,,Overcast,300,2014-04-02 07:53:00
2:53 AM,35.1,21.9,59,29.72,10.0,NNW,4.6,-,N/A,,Overcast,330,2014-04-02 08:53:00
3:53 AM,33.1,21.9,64,29.72,10.0,East,3.5,-,N/A,,Overcast,100,2014-04-02 09:53:00
4:53 AM,30.9,21.9,69,29.71,10.0,ESE,3.5,-,N/A,,Partly Cloudy,110,2014-04-02 10:53:00
6:53 AM,28.0,19.9,72,29.73,10.0,SSW,4.6,-,N/A,,Mostly Cloudy,210,2014-04-02 12:53:00
7:53 AM,30.0,19.0,64,29.74,10.0,SSE,6.9,-,N/A,,Partly Cloudy,150,2014-04-02 13:53:00
8:53 AM,36.0,18.0,48,29.72,10.0,Variable,3.5,-,N/A,,Clear,0,2014-04-02 14:53:00
9:53 AM,39.9,19.0,43,29.70,10.0,North,-9999.0,-,N/A,,Clear,0,2014-04-02 15:53:00
10:53 AM,42.1,16.0,35,29.73,10.0,Calm,Calm,-,N/A,,Mostly Cloudy,0,2014-04-02 16:53:00
11:53 AM,42.1,15.1,34,29.72,10.0,WNW,6.9,-,N/A,,Scattered Clouds,290,2014-04-02 17:53:00
12:53 PM,42.1,17.1,37,29.73,10.0,SSW,12.7,19.6,N/A,,Clear,210,2014-04-02 18:53:00
1:53 PM,45.0,16.0,31,29.71,10.0,SSW,9.2,19.6,N/A,,Clear,210,2014-04-02 19:53:00
2:53 PM,42.1,23.0,47,29.73,10.0,West,17.3,-,N/A,,Partly Cloudy,260,2014-04-02 20:53:00
4:53 PM,43.0,15.1,32,29.75,10.0,WSW,9.2,-,N/A,,Mostly Cloudy,250,2014-04-02 22:53:00
5:53 PM,39.9,21.0,47,29.78,10.0,West,13.8,-,N/A,,Partly Cloudy,280,2014-04-02 23:53:00
6:53 PM,37.9,21.0,51,29.79,10.0,South,9.2,19.6,N/A,,Clear,190,2014-04-03 00:53:00
7:53 PM,34.0,24.1,67,29.82,10.0,SW,5.8,-,N/A,,Clear,230,2014-04-03 01:53:00
8:53 PM,33.1,24.1,70,29.85,10.0,Calm,Calm,-,N/A,,Mostly Cloudy,0,2014-04-03 02:53:00
9:53 PM,33.1,21.9,64,29.85,10.0,Calm,Calm,-,N/A,,Mostly Cloudy,0,2014-04-03 03:53:00
10:53 PM,27.0,23.0,85,29.89,10.0,SSW,3.5,-,N/A,,Scattered Clouds,210,2014-04-03 04:53:00
11:53 PM,32.0,24.1,73,29.89,10.0,Calm,Calm,-,N/A,,Overcast,0,2014-04-03 05:53:00